Regional Weather Roundup
Issued by NWS

Home | Current Version | Previous Version | Graphics & Text | Print | Product List | Glossary On
Versions: 1 2 3 4 5 6 7 8 9 10 11 12 13 14 15 16 17 18 19 20 21 22 23 24 25 26 27 28 29 30 31 32 33 34 35 36 37 38 39 40 41 42 43 44 45 46 47 48 49 50
000
ASUS43 KDTX 221601
RWRMI
MICHIGAN HOURLY REGIONAL WEATHER ROUNDUP
NATIONAL WEATHER SERVICE DETROIT/PONTIAC MI
1100 AM EST WED NOV 22 2017

NOTE: "FAIR" INDICATES FEW OR NO CLOUDS BELOW 12,000 FEET WITH NO
SIGNIFICANT WEATHER AND/OR OBSTRUCTION TO VISIBILITY.

MIZ047>049-052>055-059>063-066>070-074>076-081>083-221700-
SOUTHEAST LOWER MICHIGAN

CITY           SKY/WX    TMP DP  RH WIND       PRES   REMARKS
ADRIAN         MOSUNNY   33  15  47 NE7       30.30R WCI  27
ALMA           CLOUDY    31  17  55 W6        30.30R WCI  26
ANN ARBOR      CLOUDY    32  17  54 NW9       30.28R WCI  24
BAD AXE        CLOUDY    30  18  60 NW10G16   30.26R WCI  21
CARO           CLOUDY    31  24  75 W7        30.27R WCI  24
DETROIT CITY   CLOUDY    32  15  49 NW9G20    30.28R WCI  24
DETROIT        CLOUDY    33  16  49 N12       30.29R WCI  24
FLINT          CLOUDY    31  19  61 NW9       30.29R WCI  23
GROSSE ILE     PTSUNNY   32  16  50 N9G17     30.28R WCI  24
HILLSDALE      MOSUNNY   32  16  51 N9        30.27R WCI  24
HOWELL         CLOUDY    31  18  57 NW6       30.27R WCI  26

CITY           SKY/WX    TMP DP  RH WIND       PRES   REMARKS
JACKSON        PTSUNNY   32  14  47 NW12      30.28R WCI  23
LAMBERTVILLE   CLOUDY    35  16  46 N6        30.29S WCI  30
LANSING        CLOUDY    31  18  58 N8        30.30R WCI  23
LAPEER         CLOUDY    31  20  63 NW5       30.26S WCI  26
MASON          CLOUDY    32  16  52 N5        30.29R WCI  27
MONROE         PTSUNNY   34  14  43 NW6       30.28S WCI  29
MT. CLEMENS    MOSUNNY   33  20  59 NW12      30.25S WCI  24
PONTIAC        FLURRIES  30  17  58 NW12      30.26R WCI  20
PORT HOPE        N/A     31  16  54 NW13      30.23S WCI  21
PORT HURON     MOSUNNY   32  18  55 NW10G17   30.26R WCI  24
TRI CITIES     CLOUDY    31  21  66 NW3       30.30R
MIDLAND        CLOUDY    33  19  56 CALM      30.28S
TROY           CLOUDY    33  17  50 NW7       30.29R WCI  27
SAGINAW HB     CLOUDY    32  21  64 NW9       30.29R WCI  24
$$
MIZ043>046-050>051-056>058-064>065-071>073-077>080-221700-
SOUTHWEST LOWER MICHIGAN

CITY           SKY/WX    TMP DP  RH WIND       PRES   REMARKS
BATTLE CREEK   CLOUDY    31  17  56 NW5       30.30R WCI  26
BENTON HARBOR  CLOUDY    33  20  58 SE6       30.33R WCI  28
BIG RAPIDS     CLOUDY    29  16  57 NW3       30.27F
COLDWATER      PTSUNNY   32  15  49 N7        30.30R WCI  26
FREMONT        CLOUDY    31  18  58 N3        30.29S
HOLLAND        CLOUDY    32  18  56 N3        30.32R
GRAND RAPIDS   CLOUDY    32  18  56 W5        30.30R WCI  27
IONIA          CLOUDY    31  18  57 W5        30.29S WCI  26
KALAMAZOO      CLOUDY    32  15  49 NW7       30.31R WCI  26
LUDINGTON      CLOUDY    30  16  56 CALM      30.29S
MARSHALL       CLOUDY    30  15  52 CALM      30.29R
MOUNT PLEASANT CLOUDY    34  15  46 W8        30.27S WCI  27
MUSKEGON       CLOUDY    33  18  53 NE3       30.32R
SOUTH HAVEN    CLOUDY    32  19  58 SE5       30.32R WCI  27
$$
MIZ016>042-221700-
NORTHERN LOWER MICHIGAN

CITY           SKY/WX    TMP DP  RH WIND       PRES   REMARKS
ALPENA         CLOUDY    31  19  61 NW10      30.24S WCI  22
BEAVER ISLAND  CLOUDY    31  22  69 N6        30.25S WCI  25
BELLAIRE       CLOUDY    29  25  85 CALM      30.26S
CADILLAC       CLOUDY    28  16  60 NW7       30.23S WCI  21
CHARLEVOIX     CLOUDY    32  17  53 CALM      30.27S
FRANKFORT      CLOUDY    32  18  57 CALM      30.28S
GAYLORD        CLOUDY    25  17  72 SW3       30.21S
GRAYLING       CLOUDY    28  19  71 W3        30.24F
HARBOR SPRINGS CLOUDY    31  19  60 W6        30.24R WCI  25
HOUGHTON LAKE  CLOUDY    27  21  78 W6        30.24F WCI  20
MANISTEE       MIX PCPN  31  20  63 CALM      30.28S
OSCODA         MOSUNNY   32  16  52 NW13      30.26R WCI  22
PELLSTON       CLOUDY    30  20  66 NW8       30.24S WCI  22
ROGERS CITY    CLOUDY    29  21  71 W8        30.24S WCI  21
TRAVERSE CITY  CLOUDY    31  17  56 W7        30.26S WCI  24
$$
MIZ007>008-015-221700-
EASTERN UPPER MICHIGAN

CITY           SKY/WX    TMP DP  RH WIND       PRES   REMARKS
KINROSS        LGT SNOW  28  23  81 CALM      30.21S
MACKINAC ISLAN MOSUNNY   32  19  58 NW12G17   30.22S WCI  23
NEWBERRY       CLOUDY    25  24  95 SW7       30.20F WCI  17
S. S. MARIE    CLOUDY    26  21  81 S5        30.20S WCI  20
MUNISING         N/A     26  19  74 SW6       30.23  WCI  19
$$
MIZ004>006-011>014-085-221700-
CENTRAL UPPER MICHIGAN

CITY           SKY/WX    TMP DP  RH WIND       PRES   REMARKS
MANISTIQUE     CLOUDY    26  16  64 W7        30.25S WCI  19
ESCANABA       CLOUDY    28  16  60 NW7       30.27S WCI  21
MENOMINEE      MOSUNNY   28  15  58 N5        30.30S WCI  23
SAWYER-GWINN   CLOUDY    23  16  74 W5        30.23S WCI  17
$$
MIZ001>003-009>011-084-221700-
WESTERN UPPER MICHIGAN

CITY           SKY/WX    TMP DP  RH WIND       PRES   REMARKS
IRON MOUNTAIN  CLOUDY    23  12  62 CALM      30.22F
HOUGHTON       CLOUDY    25  18  74 W10       30.19R WCI  15
COPPER HARBOR    N/A     27  17  66 VRB5      30.20S WCI  22
IRONWOOD       CLOUDY    19  11  70 SW10      30.23F WCI   7
$$

ABBREVIATIONS USED IN REMARKS
   TC - TEMPERATURE IN CELSIUS
  WCI - WIND CHILL INDEX
   HX - HEAT INDEX
  VSB - VISIBILITY




USA.gov is the U.S. government's official web portal to all federal, state and local government web resources and services.